{"data":{"norad_id":59860,"epoch":"2026-09-21T08:58:33.554208Z","epoch_age_seconds":98976,"freshness":"FRESH","line1":"1 59860U 24098C   26264.37399947  .00000577  00000+0  30482-4 0  9991","line2":"2 59860  43.0027 252.8672 0001319 267.7735  92.2965 15.27577606131777","mean_motion":15.27577606,"eccentricity":0.0001319,"inclination_deg":43.0027,"raan_deg":252.8672,"arg_perigee_deg":267.7735,"mean_anomaly_deg":92.2965,"bstar":3.0482e-5,"rev_number":13177,"period_min":94.266896447289,"perigee_km":482.15127315466,"apogee_km":483.96125593785,"semimajor_km":6861.1932645463,"source":"CELESTRAK","updated_at":"2026-09-22T09:00:49.100679Z"}}